Adams Field Little Rock US
ICAO: KLIT
IATA: LIT
Category: Large
Scheduled Services: Yes

Elevation: 262 ft
TransAlt. 18000 ft.

Airport Communications:
LITTLE ROCK APP/DEP:119.5
ATIS:125.65
CLNC DEL:118.95
GND:121.9
JONESBORO RDO:122.2
TWR:118.7
UNICOM:122.95

KLIT Zoom In..

If you have problems with the map follow the link
https://www.worldairports.se/pages/airport.php?
ICAO=KLIT

Runways:

(A) RW 04L length 8273 ft width 150 ft
ILS 110.30 / hdg 45

(B) RW 04R length 8251 ft width 150 ft
ILS 111.30 / hdg 45

(C) RW 18 length 6224 ft width 150 ft
---- / hdg 180

(D) RW 22L length 8251 ft width 150 ft
ILS 110.70 / hdg 225

(E) RW 22R length 8273 ft width 150 ft
ILS 110.30 / hdg 225

(F) RW 36 length 6224 ft width 150 ft
---- / hdg 360

Location; KLIT
Day. 26 / Time. 01.53 Zulu
* Altimeter: 30.10
* Temperature: 08° c. 46.4°f.
* Wind from: 150° Speed 06 kn.
Dewpoint: 03° c.
Visibility: 10 Statute Miles.
Clouds: Overcast 1000 ft.

KLIT 260153Z 15006KT 10SM OVC100 08/03 A3010 RMK AO2 SLP195 T00780033 $


Wind From 150°
Speed 06 kn.

 
 
jpsmedia worldairports.se 2020   terms of use